Monroe, Wisconsin, United States (53566)
Lat: 42.60N, Lon: 89.64W
Wx Zone: WIZ068
Local Info
Past Weather Observations for Today

NOTE: This archive is for the closest National Weather Service station to Monroe. Information may differ from the station used for current weather conditions.

Click here for Long-term Archive

Time Weather Temperature Dewpoint Humidity Pressure Winds Precip Visibility
20:35
Clear
14°F / -10°C 14°F / -10°C 100% 30.12 in
(1020 mb)
S 5.8 mph
(S 9 kph)
- 10SM
20:15
Clear
14°F / -10°C 14°F / -10°C 100% 30.12 in
(1020 mb)
S 5.8 mph
(S 9 kph)
- 10SM
19:55
Clear
16°F / -9°C 14°F / -10°C 93% 30.12 in
(1020 mb)
S 5.8 mph
(S 9 kph)
- 10SM
19:35
Clear
16°F / -9°C 14°F / -10°C 93% 30.12 in
(1020 mb)
S 5.8 mph
(S 9 kph)
- 10SM
19:15
Clear
16°F / -9°C 14°F / -10°C 93% 30.09 in
(1019 mb)
SSE 4.6 mph
(SSE 7 kph)
- 10SM
18:55
Clear
19°F / -7°C 18°F / -8°C 93% 30.09 in
(1019 mb)
SW 3.5 mph
(SW 6 kph)
- 10SM
18:35
Clear
19°F / -7°C 18°F / -8°C 93% 30.09 in
(1019 mb)
SSW 4.6 mph
(SSW 7 kph)
- 10SM
18:15
Clear
19°F / -7°C 18°F / -8°C 93% 30.09 in
(1019 mb)
SSW 5.8 mph
(SSW 9 kph)
- 10SM
17:55
Clear
19°F / -7°C 18°F / -8°C 93% 30.09 in
(1019 mb)
SSW 4.6 mph
(SSW 7 kph)
- 10SM
17:35
Clear
21°F / -6°C 18°F / -8°C 86% 30.09 in
(1019 mb)
SW 4.6 mph
(SW 7 kph)
- 10SM
17:15
Clear
19°F / -7°C 18°F / -8°C 93% 30.09 in
(1019 mb)
SW 5.8 mph
(SW 9 kph)
- 10SM
16:55
Clear
19°F / -7°C 18°F / -8°C 93% 30.09 in
(1019 mb)
SW 5.8 mph
(SW 9 kph)
- 10SM
16:35
Clear
19°F / -7°C 18°F / -8°C 93% 30.09 in
(1019 mb)
SW 3.5 mph
(SW 6 kph)
- 10SM
16:15
Clear
21°F / -6°C 18°F / -8°C 86% 30.09 in
(1019 mb)
SSE 4.6 mph
(SSE 7 kph)
- 10SM
15:55
Clear
23°F / -5°C 18°F / -8°C 80% 30.09 in
(1019 mb)
SW 6.9 mph
(SW 11 kph)
- 10SM
15:35
Clear
23°F / -5°C 18°F / -8°C 80% 30.09 in
(1019 mb)
SW 10.4 mph
(SW 17 kph)
- 10SM
15:15
Clear
23°F / -5°C 18°F / -8°C 80% 30.09 in
(1019 mb)
SSW 10.4 mph
(SSW 17 kph)
- 10SM
14:55
Clear
23°F / -5°C 18°F / -8°C 80% 30.09 in
(1019 mb)
SSW 9.2 mph
(SSW 15 kph)
- 10SM
14:35
Clear
25°F / -4°C 18°F / -8°C 74% 30.09 in
(1019 mb)
SSW 8.1 mph
(SSW 13 kph)
- 10SM
14:15
Clear
23°F / -5°C 18°F / -8°C 80% 30.09 in
(1019 mb)
SSW 11.5 mph
(SSW 19 kph)
- 10SM
13:55
Partly Cloudy
23°F / -5°C 18°F / -8°C 80% 30.06 in
(1018 mb)
SSW 10.4 mph
(SSW 17 kph)
- 10SM
13:35
Overcast
23°F / -5°C 18°F / -8°C 80% 30.06 in
(1018 mb)
SSW 9.2 mph
(SSW 15 kph)
- 10SM
13:15
Overcast
23°F / -5°C 18°F / -8°C 80% 30.06 in
(1018 mb)
SSW 9.2 mph
(SSW 15 kph)
- 10SM
12:55
Overcast
21°F / -6°C 18°F / -8°C 86% 30.06 in
(1018 mb)
SSW 10.4 mph
(SSW 17 kph)
- 10SM
12:35
Overcast
21°F / -6°C 18°F / -8°C 86% 30.06 in
(1018 mb)
SSW 6.9 mph
(SSW 11 kph)
- 10SM
12:15
Overcast
21°F / -6°C 18°F / -8°C 86% 30.06 in
(1018 mb)
SSW 11.5 mph
(SSW 19 kph)
- 10SM
11:55
Overcast
21°F / -6°C 18°F / -8°C 86% 30.06 in
(1018 mb)
SSW 11.5 mph
(SSW 19 kph)
- 10SM
11:54
Overcast
21°F / -6°C 18°F / -8°C 86% 30.06 in
(1018 mb)
W 9.2 mph
(W 15 kph)
- 10SM
11:35
Overcast
21°F / -6°C 18°F / -8°C 86% 30.06 in
(1018 mb)
SSW 11.5 mph
(SSW 19 kph)
- 10SM
11:15
Overcast
21°F / -6°C 18°F / -8°C 86% 30.06 in
(1018 mb)
SSW 12.7 mph
(SSW 20 kph)
- 10SM
10:55
Mostly Cloudy
21°F / -6°C 18°F / -8°C 86% 30.06 in
(1018 mb)
W 8.1 mph
(W 13 kph)
- 10SM
10:35
Partly Cloudy
21°F / -6°C 18°F / -8°C 86% 30.06 in
(1018 mb)
SSW 9.2 mph
(SSW 15 kph)
- 10SM
10:15
Mostly Cloudy
21°F / -6°C 18°F / -8°C 86% 30.06 in
(1018 mb)
W 8.1 mph
(W 13 kph)
- 10SM
09:55
Mostly Cloudy
21°F / -6°C 18°F / -8°C 86% 30.06 in
(1018 mb)
W 12.7 mph
(W 20 kph)
- 10SM
09:35
Partly Cloudy
21°F / -6°C 16°F / -9°C 80% 30.04 in
(1017 mb)
W 12.7 mph
(W 20 kph)
- 10SM
09:15
Clear
19°F / -7°C 16°F / -9°C 86% 30.04 in
(1017 mb)
W 10.4 mph
(W 17 kph)
- 10SM
08:55
Clear
19°F / -7°C 16°F / -9°C 86% 30.04 in
(1017 mb)
W 11.5 mph
(W 19 kph)
- 10SM
08:35
Clear
19°F / -7°C 14°F / -10°C 79% 30.01 in
(1016 mb)
W 11.5 mph
(W 19 kph)
- 10SM
08:15
Clear
18°F / -8°C 14°F / -10°C 86% 30.01 in
(1016 mb)
W 10.4 mph
(W 17 kph)
- 10SM
07:55
Clear
18°F / -8°C 14°F / -10°C 86% 30.01 in
(1016 mb)
W 12.7 mph
(W 20 kph)
- 10SM
07:35
Clear
18°F / -8°C 14°F / -10°C 86% 30.01 in
(1016 mb)
W 11.5 mph
(W 19 kph)
- 10SM
07:15
Clear
16°F / -9°C 14°F / -10°C 93% 30.01 in
(1016 mb)
W 11.5 mph
(W 19 kph)
- 10SM
06:55
Clear
16°F / -9°C 14°F / -10°C 93% 29.98 in
(1015 mb)
W 13.8 mph
(W 22 kph)
- 10SM
06:35
Clear
18°F / -8°C 14°F / -10°C 86% 29.98 in
(1015 mb)
W 15 mph
(W 24 kph)
- 10SM
06:15
Partly Cloudy
18°F / -8°C 14°F / -10°C 86% 29.98 in
(1015 mb)
SSW 16.1 mph
(SSW 26 kph)
- 10SM
05:55
Overcast
19°F / -7°C 16°F / -9°C 86% 29.95 in
(1014 mb)
SSW 15 mph
(SSW 24 kph)
- 10SM
05:35
Overcast
19°F / -7°C 16°F / -9°C 86% 29.95 in
(1014 mb)
SSW 16.1 mph
(SSW 26 kph)
- 10SM
05:15
Overcast
19°F / -7°C 16°F / -9°C 86% 29.95 in
(1014 mb)
SSW 15 mph
(SSW 24 kph)
- 10SM
04:55
Overcast
19°F / -7°C 16°F / -9°C 86% 29.92 in
(1013 mb)
W 16.1 mph
(W 26 kph)
- 10SM
04:35
Overcast
19°F / -7°C 16°F / -9°C 86% 29.92 in
(1013 mb)
W 15 mph
(W 24 kph)
- 10SM
04:15
Overcast
19°F / -7°C 18°F / -8°C 93% 29.92 in
(1013 mb)
W 13.8 mph
(W 22 kph)
- 10SM
03:55
Overcast
19°F / -7°C 18°F / -8°C 93% 29.89 in
(1012 mb)
W 16.1 mph
(W 26 kph)
- 10SM
03:35
Overcast
19°F / -7°C 18°F / -8°C 93% 29.89 in
(1012 mb)
W 15 mph
(W 24 kph)
- 10SM
03:15
Overcast
19°F / -7°C 18°F / -8°C 93% 29.89 in
(1012 mb)
W 12.7 mph
(W 20 kph)
- 10SM
02:55
Overcast
19°F / -7°C 18°F / -8°C 93% 29.89 in
(1012 mb)
W 15 mph
(W 24 kph)
- 10SM
02:35
Overcast
19°F / -7°C 18°F / -8°C 93% 29.86 in
(1011 mb)
W 15 mph
(W 24 kph)
- 10SM
02:15
Overcast
19°F / -7°C 18°F / -8°C 93% 29.86 in
(1011 mb)
W 16.1 mph
(W 26 kph)
- 10SM
01:55
Overcast
19°F / -7°C 18°F / -8°C 93% 29.83 in
(1010 mb)
W 15 mph
(W 24 kph)
- 10SM
01:35
Overcast
19°F / -7°C 18°F / -8°C 93% 29.83 in
(1010 mb)
W 17.3 mph
(W 28 kph)
- 10SM
01:15
Overcast
19°F / -7°C 18°F / -8°C 93% 29.83 in
(1010 mb)
W 16.1 mph
(W 26 kph)
- 10SM
00:55
Overcast
19°F / -7°C 16°F / -9°C 86% 29.83 in
(1010 mb)
W 17.3 mph
(W 28 kph)
- 10SM
00:35
Overcast
Light Snow
19°F / -7°C 18°F / -8°C 93% 29.8 in
(1009 mb)
SSW 19.6 mph
(SSW 32 kph)
- 7SM
00:15
Overcast
Light Snow
19°F / -7°C 18°F / -8°C 93% 29.8 in
(1009 mb)
SSW 18.4 mph
(SSW 30 kph)
- 7SM
Time Weather Temperature Dewpoint Humidity Pressure Winds Precip Visibility


Weather for websites

WeatherForYou.com, LLC is not responsible for any damages or problems caused by this service. Current weather conditions are obtained from the closest station including government and personal stations which may have varying degrees of accuracy. Weather forecasts are derived from the NOAA NDFD. Like all things, this site belongs to Jesus Christ... He just trusts me to maintain it. If you have any questions or comments email webmaster@weatherforyou.com

Copyright © 2014, WeatherForYou.com LLC. All rights reserved.